Torna al catalogo

THOR ABLESTAR DEB

AttivoLEO
NORAD 355·DEBRIS·🇺🇸 United States

Lanciato Jun 29, 1961 da Cape Canaveral Space Force Station

Loading…

Prossimi Passaggi (prossime 24 ore)

TLE

AggiornatoSource: Space-Track

Epoca: Sep 14, 2026, 05:46 UTC

1 00355U 61015DV  26257.24064610  .00000427  00000-0  83344-3 0  9999
2 00355  67.2251 174.4684 0241096 144.4230  16.5881 13.34230175160906

Traccia THOR ABLESTAR DEB in tempo reale con AllMySat

Download on the App Store